Wind_Speed
32 44 52 60 67 78 63 68 65 54 48 41 37 31 24 18 14 4 7 13 21 29 39 48 58 72 90 106 121 121 120 113 107 102 95 86 82 77 74 69 66 65 64 63 64 62 59
33 44 55 62 69 79 64 69 64 57 52 46 42 34 26 19 9 5 10 10 20 28 37 50 62 77 91 102 113 118 118 115 110 103 98 92 85 79 74 69 65 62 60 62 65 63 59
34 43 56 63 71 81 68 71 70 60 55 51 47 34 27 21 13 9 13 13 20 30 40 51 64 76 83 96 102 112 119 117 112 105 101 95 88 81 75 71 68 62 58 59 59 59 57
36 43 55 65 73 82 69 70 74 63 58 53 49 36 34 28 24 17 18 13 22 33 41 54 64 72 83 96 95 106 118 116 112 107 103 96 91 84 79 74 69 65 60 59 58 55 53
36 44 54 64 74 80 79 73 74 70 62 56 52 43 38 35 33 26 20 14 12 25 35 43 55 66 76 79 82 93 113 115 111 107 104 99 91 88 82 77 74 66 61 60 59 57 54
35 44 53 62 71 79 83 71 73 75 71 64 59 50 44 41 42 38 30 20 9 9 18 25 37 43 53 59 68 82 104 110 111 104 100 95 89 88 85 79 72 65 64 64 61 59 56
35 42 50 59 68 76 82 74 74 73 76 72 66 58 56 50 47 40 36 29 21 10 3 9 16 26 37 45 57 75 98 106 107 105 100 95 89 85 84 82 76 72 70 67 65 62 60
35 42 47 56 63 72 79 78 73 75 75 76 76 71 62 56 48 41 35 30 26 21 12 8 13 21 30 41 51 67 89 102 106 108 103 97 90 88 84 82 78 74 71 68 65 64 63
35 39 43 52 58 66 73 79 71 72 77 77 74 76 73 62 55 48 38 29 23 24 24 16 14 25 32 41 53 65 81 97 102 106 103 98 92 87 84 82 80 76 72 70 68 66 65
33 38 42 46 54 60 67 73 76 69 71 73 78 70 71 72 62 49 41 32 27 21 21 21 24 27 35 43 52 63 77 90 98 103 102 98 93 88 85 84 82 78 74 72 69 67 64
31 36 39 42 48 55 61 69 72 75 68 67 69 73 68 65 66 58 46 38 32 25 23 16 15 23 33 40 51 59 72 83 92 98 99 97 92 87 85 82 80 78 76 74 70 69 68
27 33 37 41 43 49 55 60 67 72 73 69 63 66 68 66 59 60 57 47 38 34 27 23 20 20 28 36 45 52 64 75 86 92 96 95 92 88 85 81 79 78 77 74 72 70 67
24 27 33 38 40 42 48 54 58 65 70 73 73 64 61 65 64 56 57 56 48 42 32 22 21 22 23 30 39 47 57 67 78 85 89 91 90 87 84 80 78 77 77 75 72 69 65
20 27 28 34 37 38 42 47 52 57 62 67 69 72 73 63 61 64 56 52 53 50 41 29 24 25 26 27 31 40 47 60 70 80 86 86 86 84 82 80 78 77 76 74 72 70 69
16 20 26 31 32 34 38 41 45 49 53 58 63 65 68 72 70 63 61 65 49 50 50 44 35 29 25 27 28 32 40 50 59 70 77 81 82 81 80 77 74 74 74 74 72 72 72
13 17 21 25 28 27 33 38 39 42 47 51 54 59 61 65 67 71 68 63 60 60 47 46 45 39 30 24 22 24 27 33 45 56 64 70 73 75 75 74 73 74 75 74 74 73 72
14 15 19 20 21 27 25 33 33 36 39 42 46 48 53 56 58 64 66 68 65 61 57 56 44 39 36 31 25 20 18 23 31 41 49 56 62 66 69 72 73 73 74 75 76 75 76
17 15 15 17 19 23 20 28 29 32 35 37 37 39 43 47 50 52 57 60 62 62 62 60 52 52 42 31 25 21 18 16 18 24 33 42 51 58 65 68 72 76 78 80 79 77 77
23 20 19 16 22 23 21 24 23 29 32 33 34 34 35 38 40 44 45 49 53 54 55 55 55 54 50 43 40 33 22 11 6 11 15 19 24 29 34 40 46 51 54 55 57 57 57
26 23 22 20 21 22 24 21 23 22 27 29 28 29 31 31 32 34 37 39 42 46 45 46 47 47 48 46 45 42 36 30 25 16 6 3 8 13 18 21 25 29 33 36 38 39 41
32 30 27 25 25 23 25 23 20 23 22 23 27 24 24 26 28 28 28 29 31 33 38 38 36 36 37 38 37 37 37 35 31 29 26 21 15 10 6 3 1 2 7 12 16 18 22
37 34 31 29 28 26 26 25 25 21 22 21 20 18 21 20 23 23 24 24 25 24 23 25 29 28 29 27 26 27 26 28 27 27 26 24 19 16 13 12 10 9 7 5 2 1 4
40 38 34 31 32 31 29 28 28 27 25 22 20 16 18 19 17 17 17 19 22 22 22 20 18 17 18 18 18 19 20 19 17 17 17 16 17 16 14 15 11 10 9 9 7 8 10
43 40 38 37 35 35 35 34 33 31 30 26 24 20 16 17 19 16 13 14 21 18 18 17 16 17 17 14 13 12 12 13 12 13 14 12 11 11 11 8 11 12 12 14 15 14 15
49 47 45 42 39 37 38 36 34 34 33 34 28 27 25 23 22 25 24 22 22 20 19 21 17 17 17 18 17 18 18 16 16 16 17 15 15 16 16 18 22 19 21 23 24 25 25
56 54 51 49 47 43 40 40 37 38 36 36 36 34 32 32 32 31 32 32 30 28 26 22 20 19 19 20 18 19 20 21 23 24 24 26 26 26 26 26 29 35 32 32 34 39 38
62 60 58 55 53 51 47 45 43 42 41 41 41 39 39 37 37 37 37 37 36 35 33 31 28 28 28 27 25 25 25 25 26 28 30 30 30 32 31 33 38 39 38 40 43 45 48
68 64 62 60 59 57 55 53 51 49 47 46 47 48 47 46 44 44 44 44 42 42 41 42 41 39 38 38 37 36 37 37 37 38 37 37 38 40 39 40 41 43 43 44 48 50 52
78 72 69 69 67 65 62 60 58 54 52 52 52 51 52 51 52 53 53 53 52 51 49 48 49 48 48 47 47 48 48 48 47 46 48 46 48 46 49 51 51 51 53 55 58 61 63
Wind_Direction
353 354 349 350 349 355 348 345 347 352 353 352 352 347 341 336 312 259 219 212 202 201 200 197 197 201 206 211 215 212 214 217 219 221 222 221 224 224 225 226 228 230 233 236 240 244 246
1 357 357 356 358 0 358 358 359 3 2 4 4 1 1 3 350 76 118 156 184 183 183 184 192 197 203 207 210 208 210 212 216 219 220 220 222 221 221 223 224 226 230 236 240 243 246
0 358 4 1 6 6 6 8 10 11 9 13 12 12 20 19 27 74 97 133 169 173 178 185 190 195 199 204 208 205 206 208 211 215 219 218 219 221 221 224 222 225 228 234 238 242 244
6 2 6 7 11 13 13 15 19 18 16 20 20 23 32 32 43 61 93 121 160 167 180 186 191 193 199 202 204 202 203 206 209 212 216 216 215 218 221 224 225 225 229 233 239 241 243
8 9 9 10 14 17 18 20 21 27 25 27 30 28 44 47 48 54 73 99 149 178 184 190 197 200 205 204 203 201 201 203 207 211 214 215 214 218 221 225 226 228 231 234 238 241 244
10 11 13 14 17 18 20 23 24 27 34 33 35 34 44 53 59 57 56 59 67 166 191 195 201 206 211 209 204 199 201 202 204 208 212 215 215 218 221 224 228 229 232 235 239 243 243
13 13 15 16 18 21 23 25 29 27 32 38 40 43 45 48 53 58 62 67 67 63 155 197 209 205 203 199 202 197 197 202 204 206 211 214 215 216 220 223 226 228 230 233 236 241 244
16 15 15 19 19 23 25 28 30 33 32 35 40 41 44 47 51 53 58 69 78 87 92 166 182 202 192 195 193 197 196 198 201 205 209 213 214 216 219 223 226 228 232 236 239 243 247
16 15 17 21 20 26 28 28 31 37 37 37 38 41 42 43 44 46 47 58 79 98 112 124 156 166 181 184 191 191 194 198 199 204 208 212 215 217 220 222 226 229 233 236 239 242 245
16 17 17 20 21 26 30 32 33 34 38 39 41 41 44 43 43 43 47 49 58 74 103 126 150 163 171 178 185 189 191 196 200 203 206 210 213 216 220 223 227 230 233 237 239 243 246
12 16 18 19 22 25 29 34 35 36 36 38 40 42 42 46 46 46 48 52 59 70 82 94 115 147 167 173 180 187 192 194 197 202 206 210 214 217 220 223 228 231 234 238 240 244 247
3 9 14 17 20 26 28 33 37 37 38 39 39 41 44 43 46 50 50 49 53 60 69 88 105 138 157 172 178 183 191 195 197 201 205 210 213 217 221 225 228 232 235 238 242 245 250
3 7 9 15 20 24 31 31 35 40 40 41 43 41 42 45 44 47 51 54 54 56 57 74 100 123 141 163 177 180 187 195 197 200 206 209 214 217 220 225 230 234 238 242 245 249 253
13 14 10 10 16 25 26 32 34 36 40 42 43 43 44 44 46 47 48 53 60 62 62 65 81 99 120 139 165 177 186 194 198 202 207 212 216 220 224 228 231 234 238 243 248 252 255
348 5 9 9 13 21 26 25 33 35 38 41 44 45 46 46 46 47 47 49 53 61 66 67 67 79 100 124 147 170 183 192 198 204 209 214 218 222 227 232 236 239 242 246 250 254 257
328 343 356 3 8 18 22 23 26 33 36 38 40 43 47 46 48 48 48 49 50 54 57 67 73 78 81 97 122 148 171 191 199 205 209 213 218 225 230 234 238 241 245 249 252 255 259
308 328 342 352 7 6 11 18 24 28 31 36 40 41 42 45 48 50 49 48 50 51 54 56 60 68 77 85 98 117 150 180 196 210 219 222 226 230 233 237 241 245 249 252 254 256 260
281 296 315 331 339 352 4 6 14 22 24 27 31 40 42 41 45 50 51 49 50 50 53 55 57 60 62 65 77 95 116 145 177 202 216 222 227 232 236 241 244 248 251 253 256 259 262
268 280 295 309 321 330 341 349 3 6 11 17 22 26 34 43 43 42 49 54 52 52 53 53 55 57 59 61 63 66 66 74 145 180 197 210 221 230 237 242 247 250 254 257 258 261 263
264 265 277 290 300 312 323 331 340 353 359 6 18 17 22 30 39 43 43 43 48 50 55 56 56 57 57 57 58 59 63 67 71 74 87 224 243 247 245 247 252 254 256 256 259 260 264
261 268 271 274 287 296 305 313 323 333 343 353 358 11 19 15 20 25 33 41 45 42 42 44 53 57 59 57 55 56 57 56 57 59 63 68 70 72 76 78 41 273 266 265 262 261 254
252 258 265 268 274 283 293 302 308 317 324 337 344 357 2 9 8 12 20 23 27 34 39 36 35 40 42 48 56 60 60 58 56 53 53 52 52 53 53 50 50 54 50 46 36 293 266
248 248 253 260 266 272 280 288 296 302 309 313 320 324 335 343 353 2 7 12 11 10 12 15 21 26 27 32 38 38 37 44 49 47 41 40 39 36 32 21 24 25 11 355 327 310 302
251 252 251 253 257 263 270 277 283 289 295 301 301 301 305 317 323 330 339 337 343 349 352 352 354 359 1 359 358 359 7 5 3 4 2 0 354 354 345 340 339 334 332 325 317 314 301
249 254 255 254 255 258 264 271 272 276 283 286 289 289 290 292 300 305 305 307 313 321 322 327 324 326 332 328 332 334 331 324 320 319 317 313 312 309 311 311 306 304 303 302 300 296 287
249 252 254 257 257 259 261 264 269 272 275 278 284 287 284 284 287 292 298 298 298 300 303 303 302 303 301 305 309 311 309 309 309 307 308 307 302 296 296 296 292 296 298 295 297 294 295
249 250 251 253 255 257 257 260 265 270 275 277 278 281 283 281 281 282 287 292 291 290 292 293 290 290 290 291 290 292 291 291 290 291 292 293 295 295 297 296 291 292 293 295 296 295 291
249 251 251 252 254 255 258 259 259 260 265 271 276 280 281 281 281 280 280 282 284 285 284 286 287 285 286 285 284 285 283 285 286 285 282 282 281 283 286 286 286 289 291 291 291 291 290
247 249 251 253 254 257 257 259 261 263 266 269 271 274 274 276 279 280 281 282 283 281 281 281 281 281 281 282 284 286 284 283 284 284 283 280 280 279 283 285 287 288 289 290 290 290 289
Height
10687 10679 10665 10648 10627 10602 10572 10541 10510 10488 10467 10449 10431 10418 10407 10396 10389 10383 10382 10383 10386 10393 10404 10420 10436 10454 10468 10482 10506 10550 10577 10604 10624 10644 10668 10687 10701 10715 10726 10740 10749 10759 10768 10774 10777 10782 10790
10683 10674 10659 10641 10620 10595 10566 10535 10505 10482 10462 10444 10428 10415 10404 10394 10387 10381 10380 10382 10386 10391 10401 10413 10421 10434 10449 10466 10488 10531 10564 10590 10612 10635 10659 10676 10691 10704 10719 10731 10740 10751 10760 10765 10769 10777 10786
10679 10669 10655 10637 10615 10590 10562 10533 10505 10481 10462 10444 10429 10417 10405 10396 10389 10383 10383 10383 10388 10393 10403 10409 10416 10425 10445 10458 10480 10521 10549 10574 10599 10625 10643 10664 10682 10697 10713 10722 10732 10743 10753 10757 10763 10773 10780
10675 10666 10651 10635 10612 10589 10563 10537 10512 10487 10466 10450 10435 10422 10410 10401 10394 10392 10388 10390 10392 10396 10403 10410 10417 10428 10441 10447 10477 10509 10538 10566 10592 10614 10632 10654 10671 10690 10702 10715 10727 10736 10747 10752 10759 10767 10774
10673 10663 10649 10633 10612 10590 10567 10542 10520 10498 10476 10458 10444 10431 10418 10409 10402 10402 10401 10401 10405 10407 10411 10418 10424 10435 10443 10464 10488 10511 10535 10560 10586 10604 10625 10645 10669 10683 10696 10708 10719 10732 10743 10747 10752 10760 10766
10671 10661 10648 10633 10614 10593 10571 10548 10528 10508 10488 10468 10454 10443 10431 10420 10412 10411 10412 10415 10418 10421 10425 10431 10438 10447 10458 10478 10494 10513 10535 10556 10579 10604 10623 10645 10665 10678 10689 10702 10720 10730 10736 10740 10744 10751 10757
10670 10660 10649 10635 10619 10598 10578 10556 10538 10518 10500 10482 10467 10455 10444 10437 10429 10426 10423 10422 10426 10429 10433 10441 10447 10457 10468 10481 10498 10511 10531 10554 10581 10603 10621 10639 10657 10672 10682 10695 10707 10716 10722 10728 10735 10742 10748
10669 10660 10650 10639 10624 10606 10586 10567 10549 10531 10512 10496 10481 10468 10460 10453 10447 10443 10440 10435 10434 10435 10442 10446 10453 10461 10473 10484 10497 10514 10532 10554 10577 10597 10614 10632 10649 10665 10677 10689 10700 10709 10716 10724 10730 10736 10741
10670 10662 10652 10641 10630 10615 10597 10579 10562 10546 10529 10511 10496 10484 10475 10466 10460 10455 10452 10450 10446 10443 10444 10451 10457 10462 10471 10483 10497 10512 10533 10552 10572 10593 10612 10630 10647 10660 10671 10683 10692 10702 10710 10717 10723 10727 10733
10671 10664 10655 10645 10634 10623 10609 10592 10576 10561 10547 10533 10517 10504 10492 10483 10476 10471 10466 10462 10458 10457 10456 10456 10459 10467 10473 10484 10498 10516 10533 10552 10573 10591 10609 10623 10639 10653 10665 10676 10685 10694 10703 10709 10714 10720 10725
10673 10666 10659 10650 10640 10630 10619 10605 10589 10576 10562 10550 10538 10524 10511 10502 10493 10488 10481 10474 10471 10468 10468 10470 10472 10476 10483 10491 10502 10518 10533 10551 10570 10590 10609 10624 10639 10652 10662 10671 10680 10689 10696 10702 10707 10712 10717
10674 10669 10662 10655 10646 10636 10626 10616 10604 10590 10577 10564 10554 10545 10532 10522 10512 10502 10494 10488 10485 10480 10479 10480 10482 10486 10492 10501 10511 10523 10540 10555 10571 10587 10604 10619 10634 10647 10658 10667 10674 10682 10688 10694 10699 10704 10712
10675 10670 10665 10659 10652 10643 10633 10624 10615 10604 10592 10580 10570 10560 10550 10540 10530 10520 10511 10504 10500 10493 10495 10493 10492 10495 10502 10510 10521 10531 10545 10561 10577 10592 10605 10617 10630 10641 10652 10661 10669 10676 10682 10688 10693 10700 10707
10676 10672 10667 10662 10656 10649 10642 10633 10624 10615 10605 10595 10584 10575 10565 10555 10546 10538 10531 10524 10516 10512 10509 10509 10507 10509 10514 10521 10532 10542 10555 10567 10581 10593 10606 10619 10630 10640 10650 10657 10664 10669 10676 10682 10686 10691 10696
10676 10673 10669 10665 10659 10654 10649 10642 10633 10625 10617 10608 10599 10591 10582 10573 10563 10555 10549 10544 10537 10531 10526 10524 10525 10527 10530 10535 10542 10552 10562 10573 10586 10598 10611 10621 10631 10640 10648 10656 10663 10668 10672 10675 10680 10683 10687
10675 10673 10670 10667 10663 10658 10653 10648 10642 10634 10627 10619 10611 10605 10597 10590 10582 10573 10566 10559 10553 10550 10546 10544 10543 10544 10547 10552 10558 10565 10574 10585 10594 10603 10613 10622 10632 10640 10647 10653 10658 10661 10664 10669 10671 10676 10679
10673 10672 10670 10669 10665 10661 10657 10653 10648 10642 10637 10631 10624 10618 10611 10604 10597 10590 10583 10575 10571 10566 10562 10562 10560 10562 10564 10568 10571 10578 10585 10592 10600 10609 10618 10626 10632 10638 10644 10648 10652 10655 10658 10661 10663 10666 10667
10671 10670 10669 10668 10666 10663 10660 10656 10653 10648 10643 10639 10635 10629 10623 10617 10610 10605 10600 10595 10590 10584 10581 10578 10577 10578 10579 10582 10585 10590 10594 10599 10606 10612 10618 10624 10629 10634 10638 10642 10645 10647 10648 10649 10650 10654 10655
10668 10668 10667 10666 10666 10663 10661 10659 10656 10652 10649 10645 10641 10638 10633 10628 10625 10620 10615 10610 10606 10603 10599 10597 10595 10594 10595 10595 10597 10599 10602 10606 10610 10615 10619 10623 10627 10631 10634 10637 10639 10640 10640 10642 10643 10644 10645
10663 10664 10664 10664 10663 10663 10661 10659 10656 10654 10651 10650 10646 10644 10640 10637 10633 10631 10628 10625 10621 10617 10615 10613 10612 10611 10610 10610 10610 10611 10612 10613 10615 10617 10620 10623 10625 10627 10629 10631 10632 10631 10632 10632 10633 10633 10633
10656 10658 10660 10660 10659 10660 10659 10658 10656 10654 10652 10651 10649 10647 10645 10643 10640 10638 10635 10633 10631 10630 10628 10626 10624 10623 10622 10622 10621 10622 10621 10622 10622 10624 10624 10625 10625 10626 10627 10627 10628 10628 10627 10628 10628 10628 10628
10649 10651 10653 10654 10655 10656 10656 10655 10654 10654 10652 10651 10650 10649 10647 10645 10644 10642 10641 10639 10637 10636 10635 10635 10634 10633 10632 10630 10629 10629 10629 10629 10630 10630 10630 10630 10630 10630 10630 10630 10629 10629 10629 10628 10627 10627 10626
10640 10642 10645 10647 10648 10650 10651 10651 10651 10651 10651 10650 10649 10648 10647 10647 10645 10644 10643 10642 10641 10641 10639 10638 10638 10638 10637 10637 10636 10635 10635 10634 10633 10633 10632 10632 10633 10633 10632 10632 10632 10631 10630 10629 10628 10628 10627
10630 10633 10636 10638 10640 10642 10644 10645 10646 10647 10647 10647 10647 10647 10646 10645 10645 10644 10643 10642 10642 10641 10641 10640 10640 10639 10639 10639 10638 10637 10637 10637 10636 10635 10635 10635 10634 10633 10633 10631 10631 10630 10629 10628 10627 10627 10626
10618 10623 10627 10628 10631 10633 10635 10637 10639 10639 10640 10641 10642 10643 10643 10643 10643 10642 10642 10641 10640 10640 10640 10639 10638 10638 10637 10637 10636 10636 10636 10635 10635 10634 10634 10634 10632 10632 10632 10631 10629 10630 10628 10626 10624 10622 10620
10607 10611 10616 10619 10622 10623 10625 10627 10630 10632 10633 10633 10634 10636 10637 10638 10639 10639 10639 10638 10638 10637 10636 10636 10636 10635 10634 10633 10632 10631 10630 10629 10629 10629 10629 10627 10626 10626 10625 10624 10622 10618 10620 10618 10617 10612 10612
10593 10598 10602 10606 10609 10612 10614 10616 10619 10622 10624 10625 10626 10627 10629 10630 10631 10631 10632 10632 10632 10632 10632 10631 10631 10630 10629 10629 10628 10627 10625 10624 10621 10620 10619 10619 10618 10616 10616 10616 10612 10610 10609 10607 10605 10603 10598
10577 10583 10588 10592 10595 10599 10602 10604 10607 10609 10611 10613 10615 10617 10619 10620 10621 10622 10622 10622 10623 10623 10624 10624 10624 10623 10622 10621 10621 10620 10618 10616 10615 10612 10610 10609 10608 10605 10605 10604 10602 10598 10597 10595 10591 10588 10584
10561 10566 10571 10576 10581 10584 10589 10591 10593 10596 10598 10599 10602 10604 10607 10609 10609 10610 10611 10611 10612 10612 10612 10612 10612 10612 10613 10612 10611 10610 10607 10605 10603 10600 10597 10597 10595 10594 10592 10590 10589 10588 10584 10581 10577 10573 10568